TimeCST,TemperatureF,Dew PointF,Humidity,Sea Level PressureIn,VisibilityMPH,Wind Direction,Wind SpeedMPH,Gust SpeedMPH,PrecipitationIn,Events,Conditions,WindDirDegrees,DateUTC
12:53 AM,59.0,48.0,67,30.16,7.0,SE,4.6,-,N/A,,Clear,130,2013-03-09 06:53:00
1:53 AM,57.9,48.9,72,30.11,7.0,ESE,8.1,-,N/A,,Clear,120,2013-03-09 07:53:00
2:53 AM,59.0,50.0,72,30.10,8.0,SE,3.5,-,N/A,,Clear,140,2013-03-09 08:53:00
3:53 AM,59.0,51.1,75,30.11,7.0,East,4.6,-,N/A,,Clear,100,2013-03-09 09:53:00
4:53 AM,57.9,51.1,78,30.11,6.0,East,3.5,-,N/A,,Haze,80,2013-03-09 10:53:00
5:53 AM,57.9,51.1,78,30.12,7.0,East,4.6,-,N/A,,Clear,90,2013-03-09 11:53:00
6:53 AM,59.0,52.0,78,30.15,4.0,East,5.8,-,N/A,,Haze,100,2013-03-09 12:53:00
7:53 AM,61.0,53.1,75,30.15,6.0,East,8.1,-,N/A,,Haze,90,2013-03-09 13:53:00
8:53 AM,64.9,52.0,63,30.16,10.0,ESE,13.8,-,N/A,,Clear,110,2013-03-09 14:53:00
9:53 AM,70.0,53.1,55,30.16,10.0,ESE,13.8,-,N/A,,Clear,120,2013-03-09 15:53:00
10:53 AM,70.0,55.0,59,30.17,10.0,ESE,12.7,-,N/A,,Clear,120,2013-03-09 16:53:00
11:53 AM,70.0,54.0,57,30.14,10.0,East,16.1,-,N/A,,Clear,100,2013-03-09 17:53:00
12:53 PM,68.0,55.0,63,30.11,10.0,ESE,12.7,-,N/A,,Clear,110,2013-03-09 18:53:00
1:30 PM,68.0,55.4,64,30.11,10.0,East,12.7,-,N/A,,Mostly Cloudy,100,2013-03-09 19:30:00
1:53 PM,68.0,55.9,65,30.08,10.0,East,16.1,23.0,N/A,,Scattered Clouds,100,2013-03-09 19:53:00
2:53 PM,69.1,55.0,61,30.07,10.0,ESE,17.3,25.3,N/A,,Clear,110,2013-03-09 20:53:00
3:53 PM,70.0,55.0,59,30.06,10.0,ESE,15.0,23.0,N/A,,Clear,110,2013-03-09 21:53:00
4:53 PM,69.1,55.0,61,30.04,10.0,ESE,17.3,24.2,N/A,,Clear,110,2013-03-09 22:53:00
5:53 PM,69.1,55.0,61,30.02,8.0,ESE,19.6,26.5,N/A,,Clear,120,2013-03-09 23:53:00
6:53 PM,66.9,55.9,68,30.01,10.0,SE,15.0,-,N/A,,Clear,130,2013-03-10 00:53:00
7:53 PM,66.9,55.9,68,30.01,10.0,ESE,16.1,-,N/A,,Clear,120,2013-03-10 01:53:00
8:53 PM,66.9,57.9,73,30.00,9.0,ESE,15.0,-,N/A,,Clear,120,2013-03-10 02:53:00
9:53 PM,66.9,59.0,76,29.98,8.0,SE,16.1,-,N/A,,Clear,130,2013-03-10 03:53:00
10:53 PM,66.9,60.1,79,29.97,8.0,SE,12.7,-,N/A,,Clear,130,2013-03-10 04:53:00
11:53 PM,66.9,59.0,76,29.95,8.0,SE,11.5,-,N/A,,Clear,130,2013-03-10 05:53:00